Regional Weather Roundup
Issued by NWS

Home | Current Version | Previous Version | Graphics & Text | Print | Product List | Glossary On
Versions: 1 2 3 4 5 6 7 8 9 10 11 12 13 14 15 16 17 18 19 20 21 22 23 24 25 26 27 28 29 30 31 32 33 34 35 36 37 38 39 40 41 42 43 44 45 46 47 48 49 50
000
ASUS43 KOAX 091910
RWRNE

WEATHER ROUNDUP FOR NEBRASKA
NATIONAL WEATHER SERVICE OMAHA NE
100 PM CST FRI DEC 09 2016

NOTES: SATELLITE DATA IS BEING USED TO AUGMENT CLOUD COVER ABOVE
       12000 FEET.
       "FAIR" INDICATES FEW OR NO CLOUDS BELOW 12,000 FEET WITH NO
       SIGNIFICANT WEATHER AND/OR OBSTRUCTIONS TO VISIBILITY.

  * THESE STATIONS DO NOT REPORT WEATHER SUCH AS RAIN...SNOW OR FOG.

NEZ001>004-019>022-054>056-092000-
NEBRASKA PANHANDLE

CITY           SKY/WX    TMP DP  RH WIND       PRES   REMARKS
SCOTTSBLUFF    SUNNY     26  11  52 N9        30.17F WCI  17
ALLIANCE       SUNNY     22   9  57 N8        30.18S WCI  12
CHADRON        CLOUDY     8  -1  66 VRB5      30.31F WCI   0
KIMBALL        SUNNY     31  22  69 N6        30.10S WCI  25
SIDNEY         SUNNY     26  13  57 VRB5      30.13F WCI  20
$$

NEZ057>060-069>072-079>082-092000-
SOUTHWEST NEBRASKA

CITY           SKY/WX    TMP DP  RH WIND       PRES   REMARKS
NORTH PLATTE   SUNNY     24  11  57 S14       30.26F WCI  12
IMPERIAL       PTSUNNY   24  15  68 S14       30.20F WCI  12
LEXINGTON      CLOUDY    23  11  61 S16       30.31F WCI  10
MCCOOK         CLOUDY    26  14  60 S12       30.28F WCI  16
OGALLALA       SUNNY     26  15  63 SW9       30.21F WCI  16
$$

NEZ005>010-023>029-035>040-094-092000-
NORTH CENTRAL NEBRASKA

CITY           SKY/WX    TMP DP  RH WIND       PRES   REMARKS
VALENTINE      CLOUDY    18   7  62 S9        30.33F WCI   7
AINSWORTH      CLOUDY    17   8  65 S6        30.34R WCI   9
BROKEN BOW     CLOUDY    21   8  57 S14       30.31F WCI   8
O`NEILL        FLURRIES  18   9  67 SE7       30.41F WCI   9
THEDFORD       CLOUDY    24   8  52 S10       30.28F WCI  13
$$

NEZ041-046>049-061>064-073>077-083>087-092000-
SOUTH CENTRAL NEBRASKA

CITY           SKY/WX    TMP DP  RH WIND       PRES   REMARKS
GRAND ISLAND   CLOUDY    20  11  68 SE15      30.42F WCI   6
AURORA         CLOUDY    20  11  67 S12       30.44F WCI   8
HASTINGS       CLOUDY    21  10  62 S15       30.41F WCI   8
HEBRON         CLOUDY    22  11  62 S14       30.47F WCI   9
HOLDREGE       CLOUDY    21  12  67 S18       30.34F WCI   6
KEARNEY *      CLOUDY    21  10  63 S17       30.36F WCI   7
YORK           FLURRIES  19  10  68 S10       30.47F WCI   8
$$

NEZ011>018-030>034-042>045-092000-
NORTHEAST NEBRASKA

CITY           SKY/WX    TMP DP  RH WIND       PRES   REMARKS
NORFOLK        CLOUDY    14   6  70 S6        30.49F WCI   5
ALBION         CLOUDY    17   9  72 SE9       30.45F WCI   5
BLAIR          CLOUDY    18  10  70 S3        30.52F
FREMONT        CLOUDY    17  10  71 S5        30.54F WCI  10
TEKAMAH        CLOUDY    15   7  70 CALM      30.56F
WAYNE          CLOUDY    13   7  75 CALM      30.51F
$$

NEZ050>053-065>068-078-088>093-092000-
SOUTHEAST NEBRASKA

CITY           SKY/WX    TMP DP  RH WIND       PRES   REMARKS
LINCOLN        CLOUDY    20  10  65 S6        30.54F WCI  12
OMAHA EPPLEY   CLOUDY    19   8  62 S5        30.56F WCI  12
BEATRICE       CLOUDY    24  12  59 SE8       30.51F WCI  16
FALLS CITY     CLOUDY    23  14  68 S6        30.56F WCI  16
NEBRASKA CITY  CLOUDY    21   8  58 S8        30.55F WCI  11
PLATTSMOUTH    CLOUDY    20   9  61 S7        30.53F WCI  11
$$

NEZ044-045-051>053-067-092000-
OMAHA AREA

CITY           SKY/WX    TMP DP  RH WIND       PRES   REMARKS
OMAHA EPPLEY   CLOUDY    19   8  62 S5        30.56F WCI  12
BLAIR          CLOUDY    18  10  70 S3        30.52F
FREMONT        CLOUDY    17  10  71 S5        30.54F WCI  10
MILLARD        CLOUDY    21  12  66 CALM      30.55F
OFFUTT AFB     CLOUDY    20  11  68 SE3       30.54F
PLATTSMOUTH    CLOUDY    20   9  61 S7        30.53F WCI  11
WAHOO          CLOUDY    17  10  73 S6        30.53F WCI   9
$$




USA.gov is the U.S. government's official web portal to all federal, state and local government web resources and services.